• In Hungary
  • List of Countries
  • For 7 days
  • Water Temperature
  • Satellite Maps
  • Weather Map
  • News
  • Weather Widgets
  • user-avatar
    Login

    Hourly Weather Aurich

    Today, 20 February, Tuesday

    Time Temperature Precipitation Wind Pressure Humidity
    00:00 -1°C° 0 mm 2 mps 763 mmHg 80%
    01:00 -1°C° 0 mm 2 mps 763 mmHg 80%
    02:00 -2°C° 0 mm 2 mps 763 mmHg 80%
    03:00 -2°C° 0 mm 2 mps 763 mmHg 81%
    04:00 -2°C° 0 mm 2 mps 763 mmHg 80%
    05:00 -2°C° 0 mm 2 mps 763 mmHg 80%
    06:00 -2°C° 0 mm 2 mps 764 mmHg 80%
    07:00 -1°C° 0 mm 2 mps 764 mmHg 76%
    08:00 0°C° 0 mm 3 mps 764 mmHg 72%
    09:00 +1°C° 0 mm 3 mps 765 mmHg 68%
    10:00 +2°C° 0 mm 3 mps 765 mmHg 64%
    11:00 +3°C° 0 mm 3 mps 765 mmHg 59%
    12:00 +4°C° 0 mm 3 mps 765 mmHg 55%
    13:00 +4°C° 0 mm 3 mps 765 mmHg 56%
    14:00 +4°C° 0 mm 3 mps 765 mmHg 58%
    15:00 +4°C° 0 mm 4 mps 766 mmHg 59%
    16:00 +3°C° 0 mm 4 mps 766 mmHg 65%
    17:00 0°C° 0 mm 4 mps 766 mmHg 71%
    18:00 -1°C° 0 mm 4 mps 767 mmHg 77%
    19:00 -1°C° 0 mm 4 mps 767 mmHg 78%
    20:00 -2°C° 0 mm 4 mps 768 mmHg 80%
    21:00 -2°C° 0 mm 4 mps 768 mmHg 82%
    22:00 -1°C° 0 mm 3 mps 768 mmHg 83%
    23:00 -2°C° 0 mm 3 mps 769 mmHg 83%

    Tomorrow, 21 February, Wednesday

    Time Temperature Precipitation Wind Pressure Humidity
    00:00 -2°C° 0 mm 3 mps 769 mmHg 84%
    01:00 -2°C° 0 mm 3 mps 769 mmHg 85%
    02:00 -2°C° 0 mm 2 mps 769 mmHg 85%
    03:00 -2°C° 0 mm 2 mps 769 mmHg 85%
    04:00 -3°C° 0 mm 2 mps 769 mmHg 86%
    05:00 -3°C° 0 mm 2 mps 769 mmHg 86%
    06:00 -3°C° 0 mm 2 mps 769 mmHg 86%
    07:00 -2°C° 0 mm 2 mps 769 mmHg 80%
    08:00 -1°C° 0 mm 2 mps 769 mmHg 75%
    09:00 +1°C° 0 mm 2 mps 769 mmHg 70%
    10:00 +2°C° 0 mm 2 mps 769 mmHg 65%
    11:00 +3°C° 0 mm 2 mps 769 mmHg 61%
    12:00 +4°C° 0 mm 2 mps 769 mmHg 56%
    13:00 +4°C° 0 mm 2 mps 769 mmHg 57%
    14:00 +4°C° 0 mm 2 mps 769 mmHg 59%
    15:00 +3°C° 0 mm 3 mps 768 mmHg 60%
    16:00 +2°C° 0 mm 3 mps 768 mmHg 66%
    17:00 0°C° 0 mm 3 mps 768 mmHg 72%
    18:00 -1°C° 0 mm 3 mps 768 mmHg 78%
    19:00 -1°C° 0 mm 3 mps 768 mmHg 79%
    20:00 -1°C° 0 mm 3 mps 769 mmHg 81%
    21:00 -1°C° 0 mm 3 mps 769 mmHg 82%
    22:00 -2°C° 0 mm 3 mps 769 mmHg 83%
    23:00 -2°C° 0 mm 3 mps 769 mmHg 84%

    Day after tomorrow, 22 February, Thursday

    Time Temperature Precipitation Wind Pressure Humidity
    00:00 -2°C° 0 mm 3 mps 769 mmHg 85%
    01:00 -2°C° 0 mm 3 mps 769 mmHg 85%
    02:00 -2°C° 0 mm 3 mps 769 mmHg 85%
    03:00 -4°C° 0 mm 3 mps 769 mmHg 86%
    04:00 -4°C° 0 mm 3 mps 769 mmHg 85%
    05:00 -4°C° 0 mm 3 mps 769 mmHg 85%
    06:00 -4°C° 0 mm 3 mps 769 mmHg 85%
    07:00 -2°C° 0 mm 3 mps 769 mmHg 79%
    08:00 -1°C° 0 mm 3 mps 769 mmHg 72%
    09:00 -1°C° 0 mm 4 mps 770 mmHg 66%
    10:00 0°C° 0 mm 4 mps 769 mmHg 61%
    11:00 +1°C° 0 mm 4 mps 769 mmHg 57%
    12:00 +3°C° 0 mm 4 mps 769 mmHg 52%
    13:00 +3°C° 0 mm 4 mps 769 mmHg 53%
    14:00 +3°C° 0 mm 4 mps 769 mmHg 55%
    15:00 +2°C° 0 mm 5 mps 769 mmHg 56%
    16:00 +1°C° 0 mm 5 mps 769 mmHg 62%
    17:00 0°C° 0 mm 5 mps 769 mmHg 68%
    18:00 -1°C° 0 mm 5 mps 769 mmHg 74%
    19:00 -1°C° 0 mm 5 mps 769 mmHg 74%
    20:00 -1°C° 0 mm 5 mps 769 mmHg 74%
    21:00 -2°C° 0 mm 6 mps 769 mmHg 74%
    22:00 -3°C° 0 mm 6 mps 769 mmHg 77%
    23:00 -4°C° 0 mm 6 mps 769 mmHg 80%

    23 February, Friday

    Time Temperature Precipitation Wind Pressure Humidity
    00:00 -4°C° 0 mm 6 mps 769 mmHg 83%
    01:00 -5°C° 0 mm 6 mps 769 mmHg 82%
    02:00 -5°C° 0 mm 6 mps 769 mmHg 80%
    03:00 -5°C° 0 mm 6 mps 769 mmHg 78%
    04:00 -5°C° 0 mm 6 mps 769 mmHg 77%
    05:00 -5°C° 0 mm 6 mps 770 mmHg 76%
    06:00 -6°C° 0 mm 7 mps 770 mmHg 74%
    07:00 -6°C° 0 mm 7 mps 770 mmHg 70%
    08:00 -4°C° 0 mm 7 mps 770 mmHg 65%
    09:00 -4°C° 0 mm 8 mps 771 mmHg 60%
    10:00 -2°C° 0 mm 8 mps 771 mmHg 58%
    11:00 -2°C° 0 mm 7 mps 771 mmHg 55%
    12:00 -1°C° 0 mm 7 mps 771 mmHg 53%
    13:00 -1°C° 0 mm 7 mps 771 mmHg 52%
    14:00 -1°C° 0 mm 7 mps 770 mmHg 52%
    15:00 -1°C° 0 mm 7 mps 770 mmHg 52%
    16:00 -2°C° 0 mm 7 mps 771 mmHg 55%
    17:00 -3°C° 0 mm 7 mps 771 mmHg 58%
    18:00 -4°C° 0 mm 7 mps 771 mmHg 62%
    19:00 -4°C° 0 mm 7 mps 772 mmHg 63%
    20:00 -4°C° 0 mm 7 mps 772 mmHg 64%
    21:00 -6°C° 0 mm 7 mps 773 mmHg 65%
    22:00 -6°C° 0 mm 7 mps 773 mmHg 65%
    23:00 -6°C° 0 mm 7 mps 773 mmHg 66%

    24 February, Saturday

    Time Temperature Precipitation Wind Pressure Humidity
    00:00 -6°C° 0 mm 6 mps 773 mmHg 66%
    01:00 -6°C° 0 mm 6 mps 773 mmHg 65%
    02:00 -6°C° 0 mm 6 mps 773 mmHg 65%
    03:00 -6°C° 0 mm 6 mps 773 mmHg 65%
    04:00 -6°C° 0 mm 6 mps 774 mmHg 65%
    05:00 -6°C° 0 mm 6 mps 774 mmHg 65%
    06:00 -6°C° 0 mm 5 mps 774 mmHg 65%
    07:00 -5°C° 0 mm 6 mps 775 mmHg 61%
    08:00 -4°C° 0 mm 6 mps 775 mmHg 58%
    09:00 -4°C° 0 mm 6 mps 776 mmHg 54%
    10:00 -3°C° 0 mm 6 mps 776 mmHg 51%
    11:00 -1°C° 0 mm 5 mps 776 mmHg 49%
    12:00 -1°C° 0 mm 5 mps 776 mmHg 46%
    13:00 -2°C° 0 mm 6 mps 775 mmHg 48%
    14:00 -2°C° 0 mm 6 mps 775 mmHg 49%
    15:00 -2°C° 0 mm 6 mps 775 mmHg 51%
    16:00 -2°C° 0 mm 6 mps 775 mmHg 55%
    17:00 -3°C° 0 mm 6 mps 775 mmHg 60%
    18:00 -4°C° 0 mm 6 mps 775 mmHg 64%
    19:00 -4°C° 0 mm 6 mps 775 mmHg 66%
    20:00 -4°C° 0 mm 6 mps 775 mmHg 67%
    21:00 -4°C° 0 mm 6 mps 775 mmHg 69%
    22:00 -5°C° 0.1 mm 6 mps 775 mmHg 68%
    23:00 -6°C° 0.1 mm 7 mps 775 mmHg 66%

    25 February, Sunday

    Time Temperature Precipitation Wind Pressure Humidity
    00:00 -6°C° 0.1 mm 7 mps 775 mmHg 65%
    01:00 -7°C° 0 mm 8 mps 775 mmHg 64%
    02:00 -7°C° 0 mm 8 mps 775 mmHg 64%
    03:00 -7°C° 0 mm 8 mps 775 mmHg 63%
    04:00 -8°C° 0 mm 8 mps 775 mmHg 62%
    05:00 -8°C° 0 mm 8 mps 776 mmHg 61%
    06:00 -8°C° 0 mm 8 mps 776 mmHg 61%
    07:00 -9°C° 0 mm 9 mps 776 mmHg 58%
    08:00 -8°C° 0 mm 9 mps 776 mmHg 55%
    09:00 -8°C° 0 mm 9 mps 776 mmHg 52%
    10:00 -6°C° 0 mm 9 mps 776 mmHg 52%
    11:00 -6°C° 0 mm 9 mps 775 mmHg 51%
    12:00 -5°C° 0 mm 9 mps 775 mmHg 50%
    13:00 -5°C° 0 mm 10 mps 774 mmHg 52%
    14:00 -5°C° 0 mm 10 mps 774 mmHg 54%
    15:00 -5°C° 0 mm 10 mps 773 mmHg 56%
    16:00 -7°C° 0.1 mm 10 mps 773 mmHg 58%
    17:00 -6°C° 0.1 mm 9 mps 773 mmHg 60%
    18:00 -8°C° 0.1 mm 9 mps 773 mmHg 61%
    19:00 -8°C° 0.1 mm 9 mps 773 mmHg 62%
    20:00 -7°C° 0.1 mm 8 mps 773 mmHg 62%
    21:00 -7°C° 0.1 mm 8 mps 773 mmHg 62%
    22:00 -8°C° 0.1 mm 8 mps 773 mmHg 63%
    23:00 -8°C° 0.1 mm 7 mps 773 mmHg 64%
    Show more